| time (UTC) | temp C | wind direction | speed KPH | gust KPH | rain 1hr cm | rain 24hr cm | rain mn cm | humidity % | barometer mb |
| 20260504141014 | 31 | 168 | 6.4 | 14.5 | 0.00 | 0.00 | 0.00 | 50 | 1004.0 |
| 20260504140511 | 32 | 152 | 3.2 | 11.3 | 0.00 | 0.00 | 0.00 | 50 | 1003.9 |
| 20260504130435 | 32 | 138 | 11.3 | 12.9 | 0.00 | 0.00 | 0.00 | 50 | 1004.7 |
| 20260504110322 | 34 | 144 | 4.8 | 6.4 | 0.00 | 0.00 | 0.00 | 48 | 1006.0 |
| 20260504100240 | 33 | 135 | 8.0 | 14.5 | 0.00 | 0.00 | 0.00 | 44 | 1006.8 |
| 20260504081633 | 32 | 146 | 6.4 | 12.9 | 0.00 | 0.00 | 0.00 | 45 | 1007.4 |
| 20260504081129 | 32 | 146 | 9.7 | 14.5 | 0.00 | 0.00 | 0.00 | 41 | 1007.4 |
| 20260504080626 | 32 | 145 | 12.9 | 14.5 | 0.00 | 0.00 | 0.00 | 39 | 1007.4 |
| 20260504080122 | 32 | 130 | 9.7 | 14.5 | 0.00 | 0.00 | 0.00 | 39 | 1007.5 |
| 20260504050439 | 34 | 203 | 0.0 | 3.2 | 0.00 | 0.00 | 0.00 | 29 | 1007.7 |
| 20260504045936 | 34 | 82 | 1.6 | 6.4 | 0.00 | 0.00 | 0.00 | 30 | 1007.5 |
| 20260504045431 | 34 | 5 | 3.2 | 4.8 | 0.00 | 0.00 | 0.00 | 30 | 1007.6 |
| 20260504044928 | 33 | 22 | 3.2 | 4.8 | 0.00 | 0.00 | 0.00 | 30 | 1007.5 |
| 20260504044425 | 33 | 15 | 3.2 | 4.8 | 0.00 | 0.00 | 0.00 | 30 | 1007.6 |
| 20260504043922 | 33 | 263 | 0.0 | 3.2 | 0.00 | 0.00 | 0.00 | 29 | 1007.6 |
| 20260504043419 | 33 | 82 | 0.0 | 0.0 | 0.00 | 0.00 | 0.00 | 29 | 1007.5 |
| 20260504042917 | 33 | 29 | 0.0 | 1.6 | 0.00 | 0.00 | 0.00 | 30 | 1007.6 |
| 20260504042414 | 33 | 195 | 0.0 | 1.6 | 0.00 | 0.00 | 0.00 | 30 | 1007.5 |
| 20260504041910 | 32 | 99 | 0.0 | 1.6 | 0.00 | 0.00 | 0.00 | 31 | 1007.4 |
| 20260504041406 | 32 | 270 | 0.0 | 1.6 | 0.00 | 0.00 | 0.00 | 32 | 1007.2 |
| 20260504040902 | 31 | 15 | 0.0 | 0.0 | 0.00 | 0.00 | 0.00 | 32 | 1007.4 |
| 20260504040400 | 31 | 270 | 0.0 | 0.0 | 0.00 | 0.00 | 0.00 | 34 | 1007.5 |
| 20260504035855 | 31 | 261 | 0.0 | 1.6 | 0.00 | 0.00 | 0.00 | 34 | 1007.3 |
| 20260504035353 | 31 | 206 | 1.6 | 4.8 | 0.00 | 0.00 | 0.00 | 36 | 1007.3 |
| 20260504034850 | 31 | 114 | 0.0 | 3.2 | 0.00 | 0.00 | 0.00 | 35 | 1007.4 |
| 20260504034347 | 30 | 180 | 0.0 | 0.0 | 0.00 | 0.00 | 0.00 | 34 | 1007.3 |
| 20260504033844 | 30 | 203 | 0.0 | 1.6 | 0.00 | 0.00 | 0.00 | 33 | 1007.2 |
| 20260504033342 | 30 | 180 | 0.0 | 0.0 | 0.00 | 0.00 | 0.00 | 32 | 1007.2 |
| 20260504032839 | 30 | 229 | 0.0 | 3.2 | 0.00 | 0.00 | 0.00 | 33 | 1007.2 |
| 20260504032336 | 31 | 114 | 0.0 | 1.6 | 0.00 | 0.00 | 0.00 | 33 | 1007.1 |
| 20260504031833 | 31 | 90 | 0.0 | 0.0 | 0.00 | 0.00 | 0.00 | 32 | 1007.0 |
| 20260504031330 | 30 | 151 | 0.0 | 0.0 | 0.00 | 0.00 | 0.00 | 33 | 1007.0 |
| 20260504030826 | 29 | 0 | 0.0 | 3.2 | 0.00 | 0.00 | 0.00 | 33 | 1007.2 |
| 20260504030324 | 28 | 6 | 1.6 | 3.2 | 0.00 | 0.00 | 0.00 | 33 | 1007.1 |
| 20260504025819 | 29 | 352 | 1.6 | 3.2 | 0.00 | 0.00 | 0.00 | 33 | 1007.1 |
| 20260504025317 | 28 | 246 | 0.0 | 4.8 | 0.00 | 0.00 | 0.00 | 33 | 1006.9 |
| 20260504024813 | 28 | 304 | 4.8 | 6.4 | 0.00 | 0.00 | 0.00 | 33 | 1006.9 |
| 20260504024310 | 28 | 296 | 4.8 | 4.8 | 0.00 | 0.00 | 0.00 | 33 | 1006.7 |
| 20260504023807 | 28 | 278 | 1.6 | 4.8 | 0.00 | 0.00 | 0.00 | 33 | 1006.9 |
| 20260504023303 | 28 | 287 | 3.2 | 4.8 | 0.00 | 0.00 | 0.00 | 34 | 1006.7 |
| 20260504022759 | 28 | 270 | 3.2 | 4.8 | 0.00 | 0.00 | 0.00 | 34 | 1006.7 |
| 20260504022255 | 28 | 279 | 4.8 | 4.8 | 0.00 | 0.00 | 0.00 | 34 | 1006.7 |
| 20260504021752 | 28 | 290 | 0.0 | 4.8 | 0.00 | 0.00 | 0.00 | 34 | 1006.8 |
| 20260504021250 | 28 | 286 | 4.8 | 6.4 | 0.00 | 0.00 | 0.00 | 33 | 1006.8 |
| 20260504020747 | 28 | 246 | 0.0 | 3.2 | 0.00 | 0.00 | 0.00 | 35 | 1006.7 |
| 20260504020243 | 28 | 283 | 3.2 | 6.4 | 0.00 | 0.00 | 0.00 | 34 | 1006.4 |
| 20260504015739 | 28 | 262 | 4.8 | 4.8 | 0.00 | 0.00 | 0.00 | 35 | 1006.6 |
| 20260504015236 | 28 | 297 | 1.6 | 3.2 | 0.00 | 0.00 | 0.00 | 35 | 1006.6 |
| 20260504014732 | 28 | 310 | 4.8 | 4.8 | 0.00 | 0.00 | 0.00 | 35 | 1006.5 |
| 20260504014228 | 28 | 258 | 3.2 | 4.8 | 0.00 | 0.00 | 0.00 | 35 | 1006.6 |
| 20260504013726 | 28 | 270 | 0.0 | 3.2 | 0.00 | 0.00 | 0.00 | 35 | 1006.5 |
| 20260504013223 | 28 | 354 | 1.6 | 6.4 | 0.00 | 0.00 | 0.00 | 35 | 1006.5 |
| 20260504012720 | 28 | 295 | 3.2 | 3.2 | 0.00 | 0.00 | 0.00 | 35 | 1006.4 |
| 20260504012218 | 28 | 319 | 3.2 | 6.4 | 0.00 | 0.00 | 0.00 | 35 | 1006.5 |
| 20260504011715 | 28 | 281 | 4.8 | 6.4 | 0.00 | 0.00 | 0.00 | 34 | 1006.5 |
| 20260504011211 | 28 | 292 | 4.8 | 8.0 | 0.00 | 0.00 | 0.00 | 35 | 1006.4 |
| 20260504010707 | 28 | 286 | 6.4 | 6.4 | 0.00 | 0.00 | 0.00 | 35 | 1006.3 |
| 20260504010203 | 28 | 283 | 6.4 | 6.4 | 0.00 | 0.00 | 0.00 | 35 | 1006.5 |
| 20260504005700 | 28 | 279 | 3.2 | 6.4 | 0.00 | 0.00 | 0.00 | 36 | 1006.5 |
| 20260504005157 | 28 | 308 | 3.2 | 6.4 | 0.00 | 0.00 | 0.00 | 36 | 1006.5 |
| 20260504004655 | 28 | 315 | 3.2 | 8.0 | 0.00 | 0.00 | 0.00 | 35 | 1006.3 |
| 20260504004152 | 28 | 330 | 4.8 | 8.0 | 0.00 | 0.00 | 0.00 | 35 | 1006.5 |
| 20260504003648 | 28 | 282 | 4.8 | 8.0 | 0.00 | 0.00 | 0.00 | 34 | 1006.3 |
| 20260504003145 | 28 | 299 | 4.8 | 4.8 | 0.00 | 0.00 | 0.00 | 34 | 1006.4 |
| 20260504002641 | 28 | 315 | 0.0 | 4.8 | 0.00 | 0.00 | 0.00 | 35 | 1006.5 |
| 20260504002139 | 28 | 325 | 1.6 | 4.8 | 0.00 | 0.00 | 0.00 | 34 | 1006.2 |
| 20260504001637 | 28 | 310 | 0.0 | 4.8 | 0.00 | 0.00 | 0.00 | 35 | 1006.4 |
| 20260504001132 | 28 | 339 | 4.8 | 6.4 | 0.00 | 0.00 | 0.00 | 35 | 1006.5 |
| 20260504000630 | 28 | 346 | 4.8 | 6.4 | 0.00 | 0.00 | 0.00 | 35 | 1006.3 |
| 20260504000127 | 29 | 289 | 3.2 | 6.4 | 0.00 | 0.00 | 0.00 | 35 | 1006.1 |
| 20260503235625 | 30 | 321 | 4.8 | 4.8 | 0.00 | 0.00 | 0.00 | 35 | 1006.2 |
| 20260503235121 | 30 | 321 | 4.8 | 6.4 | 0.00 | 0.00 | 0.00 | 34 | 1006.2 |
| 20260503234620 | 30 | 290 | 4.8 | 6.4 | 0.00 | 0.00 | 0.00 | 34 | 1006.2 |
| 20260503234118 | 30 | 12 | 0.0 | 4.8 | 0.00 | 0.00 | 0.00 | 34 | 1006.3 |
| 20260503233614 | 30 | 306 | 1.6 | 4.8 | 0.00 | 0.00 | 0.00 | 35 | 1006.1 |
| 20260503233110 | 30 | 281 | 4.8 | 6.4 | 0.00 | 0.00 | 0.00 | 33 | 1006.2 |
| 20260503232607 | 30 | 312 | 3.2 | 4.8 | 0.00 | 0.00 | 0.00 | 34 | 1006.2 |
| 20260503232104 | 30 | 0 | 0.0 | 0.0 | 0.00 | 0.00 | 0.00 | 35 | 1006.3 |
| 20260503231602 | 30 | 0 | 0.0 | 0.0 | 0.00 | 0.00 | 0.00 | 35 | 1006.1 |
| 20260503231059 | 30 | 355 | 3.2 | 3.2 | 0.00 | 0.00 | 0.00 | 35 | 1006.1 |
| 20260503230555 | 30 | 288 | 3.2 | 3.2 | 0.00 | 0.00 | 0.00 | 35 | 1006.3 |
| 20260503230053 | 30 | 0 | 0.0 | 4.8 | 0.00 | 0.00 | 0.00 | 36 | 1006.2 |
| 20260503225550 | 30 | 292 | 3.2 | 3.2 | 0.00 | 0.00 | 0.00 | 37 | 1006.2 |
| 20260503225044 | 30 | 270 | 0.0 | 3.2 | 0.00 | 0.00 | 0.00 | 36 | 1006.1 |
| 20260503224543 | 30 | 281 | 3.2 | 4.8 | 0.00 | 0.00 | 0.00 | 37 | 1006.2 |
| 20260503224040 | 30 | 315 | 4.8 | 4.8 | 0.00 | 0.00 | 0.00 | 36 | 1006.3 |
| 20260503223538 | 31 | 270 | 0.0 | 1.6 | 0.00 | 0.00 | 0.00 | 36 | 1006.2 |
| 20260503223033 | 31 | 246 | 0.0 | 3.2 | 0.00 | 0.00 | 0.00 | 37 | 1006.3 |
| 20260503222532 | 31 | 270 | 1.6 | 4.8 | 0.00 | 0.00 | 0.00 | 36 | 1006.3 |
| 20260503222029 | 30 | 262 | 0.0 | 0.0 | 0.00 | 0.00 | 0.00 | 36 | 1006.1 |
| 20260503221527 | 30 | 260 | 0.0 | 3.2 | 0.00 | 0.00 | 0.00 | 36 | 1006.2 |
| 20260503221025 | 30 | 243 | 0.0 | 3.2 | 0.00 | 0.00 | 0.00 | 37 | 1006.2 |
| 20260503220520 | 31 | 270 | 0.0 | 0.0 | 0.00 | 0.00 | 0.00 | 36 | 1006.2 |
| 20260503220017 | 31 | 240 | 1.6 | 3.2 | 0.00 | 0.00 | 0.00 | 36 | 1006.4 |
| 20260503215515 | 31 | 228 | 3.2 | 3.2 | 0.00 | 0.00 | 0.00 | 37 | 1006.5 |
| 20260503215011 | 30 | 126 | 1.6 | 3.2 | 0.00 | 0.00 | 0.00 | 38 | 1006.4 |
| 20260503214510 | 30 | 161 | 4.8 | 4.8 | 0.00 | 0.00 | 0.00 | 38 | 1006.5 |
| 20260503214006 | 31 | 238 | 4.8 | 4.8 | 0.00 | 0.00 | 0.00 | 37 | 1006.7 |
| 20260503213505 | 31 | 261 | 0.0 | 3.2 | 0.00 | 0.00 | 0.00 | 36 | 1006.6 |
| 20260503213001 | 31 | 285 | 1.6 | 3.2 | 0.00 | 0.00 | 0.00 | 35 | 1006.6 |
| 20260503212458 | 31 | 15 | 1.6 | 3.2 | 0.00 | 0.00 | 0.00 | 36 | 1006.7 |
| 20260503211955 | 31 | 291 | 4.8 | 4.8 | 0.00 | 0.00 | 0.00 | 36 | 1006.7 |
| 20260503211453 | 31 | 303 | 3.2 | 4.8 | 0.00 | 0.00 | 0.00 | 36 | 1007.0 |
| 20260503210948 | 31 | 270 | 0.0 | 4.8 | 0.00 | 0.00 | 0.00 | 36 | 1006.9 |
| 20260503210445 | 31 | 286 | 3.2 | 4.8 | 0.00 | 0.00 | 0.00 | 36 | 1006.8 |
| 20260503205945 | 31 | 315 | 4.8 | 6.4 | 0.00 | 0.00 | 0.00 | 36 | 1007.1 |
| 20260503205443 | 31 | 297 | 3.2 | 4.8 | 0.00 | 0.00 | 0.00 | 35 | 1007.0 |
| 20260503204939 | 31 | 296 | 4.8 | 6.4 | 0.00 | 0.00 | 0.00 | 35 | 1007.1 |
| 20260503204436 | 31 | 307 | 4.8 | 4.8 | 0.00 | 0.00 | 0.00 | 35 | 1007.1 |
| 20260503203933 | 31 | 297 | 4.8 | 6.4 | 0.00 | 0.00 | 0.00 | 35 | 1007.4 |
| 20260503203431 | 31 | 290 | 4.8 | 6.4 | 0.00 | 0.00 | 0.00 | 35 | 1007.1 |
| 20260503202927 | 31 | 278 | 3.2 | 4.8 | 0.00 | 0.00 | 0.00 | 36 | 1007.3 |
| 20260503202425 | 31 | 281 | 3.2 | 4.8 | 0.00 | 0.00 | 0.00 | 39 | 1007.2 |
| 20260503201924 | 31 | 334 | 6.4 | 6.4 | 0.00 | 0.00 | 0.00 | 39 | 1007.2 |
| 20260503201421 | 31 | 294 | 3.2 | 4.8 | 0.00 | 0.00 | 0.00 | 41 | 1007.3 |
| 20260503200918 | 30 | 318 | 4.8 | 4.8 | 0.00 | 0.00 | 0.00 | 47 | 1007.1 |
| 20260503200414 | 28 | 307 | 0.0 | 3.2 | 0.00 | 0.00 | 0.00 | 56 | 1007.2 |
| 20260503195911 | 27 | 232 | 3.2 | 3.2 | 0.00 | 0.00 | 0.00 | 66 | 1007.3 |
| 20260503195408 | 27 | 140 | 0.0 | 0.0 | 0.00 | 0.00 | 0.00 | 70 | 1007.3 |
| 20260503194905 | 27 | 149 | 4.8 | 4.8 | 0.00 | 0.00 | 0.00 | 71 | 1007.2 |
| 20260503194401 | 28 | 159 | 8.0 | 8.0 | 0.00 | 0.00 | 0.00 | 69 | 1007.2 |
| 20260503193857 | 27 | 254 | 0.0 | 0.0 | 0.00 | 0.00 | 0.00 | 69 | 1007.3 |
| 20260503193353 | 27 | 165 | 0.0 | 1.6 | 0.00 | 0.00 | 0.00 | 71 | 1007.2 |
| 20260503192849 | 27 | 165 | 1.6 | 4.8 | 0.00 | 0.00 | 0.00 | 72 | 1007.3 |
| 20260503192345 | 27 | 165 | 3.2 | 4.8 | 0.00 | 0.00 | 0.00 | 71 | 1007.5 |
| 20260503191841 | 28 | 131 | 6.4 | 8.0 | 0.00 | 0.00 | 0.00 | 67 | 1007.3 |
| 20260503191338 | 30 | 153 | 6.4 | 6.4 | 0.00 | 0.00 | 0.00 | 60 | 1007.2 |
| 20260503190835 | 29 | 254 | 0.0 | 3.2 | 0.00 | 0.00 | 0.00 | 62 | 1007.6 |
| 20260503190332 | 28 | 165 | 0.0 | 1.6 | 0.00 | 0.00 | 0.00 | 65 | 1007.6 |
| 20260503185829 | 28 | 175 | 0.0 | 0.0 | 0.00 | 0.00 | 0.00 | 66 | 1007.5 |
| 20260503185325 | 28 | 150 | 3.2 | 3.2 | 0.00 | 0.00 | 0.00 | 66 | 1007.4 |
| 20260503184826 | 28 | 164 | 0.0 | 0.0 | 0.00 | 0.00 | 0.00 | 66 | 1007.5 |
| 20260503184322 | 27 | 164 | 0.0 | 3.2 | 0.00 | 0.00 | 0.00 | 68 | 1007.3 |
| 20260503183818 | 27 | 147 | 0.0 | 0.0 | 0.00 | 0.00 | 0.00 | 69 | 1007.4 |
| 20260503183315 | 27 | 157 | 0.0 | 3.2 | 0.00 | 0.00 | 0.00 | 69 | 1007.6 |
| 20260503182812 | 27 | 147 | 4.8 | 4.8 | 0.00 | 0.00 | 0.00 | 68 | 1007.4 |
| 20260503182312 | 27 | 168 | 1.6 | 4.8 | 0.00 | 0.00 | 0.00 | 68 | 1007.4 |
| 20260503181808 | 27 | 154 | 4.8 | 4.8 | 0.00 | 0.00 | 0.00 | 68 | 1007.5 |
| 20260503181305 | 27 | 172 | 1.6 | 4.8 | 0.00 | 0.00 | 0.00 | 67 | 1007.7 |
| 20260503180801 | 27 | 176 | 3.2 | 4.8 | 0.00 | 0.00 | 0.00 | 66 | 1007.3 |
| 20260503180300 | 27 | 166 | 1.6 | 4.8 | 0.00 | 0.00 | 0.00 | 66 | 1007.2 |
| 20260503175755 | 27 | 151 | 3.2 | 4.8 | 0.00 | 0.00 | 0.00 | 66 | 1007.3 |
| 20260503175254 | 27 | 152 | 4.8 | 4.8 | 0.00 | 0.00 | 0.00 | 67 | 1007.1 |
| 20260503174755 | 27 | 156 | 3.2 | 4.8 | 0.00 | 0.00 | 0.00 | 67 | 1006.9 |
| 20260503174253 | 27 | 147 | 4.8 | 4.8 | 0.00 | 0.00 | 0.00 | 68 | 1007.2 |
| 20260503173754 | 27 | 154 | 4.8 | 6.4 | 0.00 | 0.00 | 0.00 | 68 | 1006.9 |
| 20260503173249 | 27 | 180 | 1.6 | 8.0 | 0.00 | 0.00 | 0.00 | 68 | 1007.1 |
| 20260503172746 | 27 | 148 | 4.8 | 6.4 | 0.00 | 0.00 | 0.00 | 68 | 1006.8 |
| 20260503172244 | 27 | 147 | 0.0 | 6.4 | 0.00 | 0.00 | 0.00 | 67 | 1006.8 |
| 20260503171740 | 27 | 172 | 0.0 | 6.4 | 0.00 | 0.00 | 0.00 | 67 | 1007.0 |
| 20260503171238 | 28 | 99 | 0.0 | 4.8 | 0.00 | 0.00 | 0.00 | 66 | 1006.9 |
| 20260503170734 | 28 | 151 | 3.2 | 8.0 | 0.00 | 0.00 | 0.00 | 65 | 1006.9 |
| 20260503170231 | 28 | 148 | 4.8 | 6.4 | 0.00 | 0.00 | 0.00 | 63 | 1006.7 |
| 20260503160153 | 28 | 132 | 3.2 | 9.7 | 0.00 | 0.00 | 0.00 | 59 | 1006.1 |
| 20260503150623 | 29 | 195 | 3.2 | 17.7 | 0.00 | 0.00 | 0.00 | 55 | 1005.9 |
| 20260503150119 | 30 | 140 | 8.0 | 17.7 | 0.00 | 0.00 | 0.00 | 54 | 1005.7 |